RH
21 23 24 23 23 23 22 21 20 18 17 16 16 16 16 16 16 14 12 14 17 18 18 18 17 16 15 15 13 11 10 7 6 5 2 2 2 4 8 5 7 13 18 38 41 26 23 20 36 65 76 79 81 84 88 91 92 94 97 96 93 96 92 78 73 67 67 76 78 85 79 70 76 78 78 74 75 77 75 79 81 83 81 76 76 85 92 95
23 25 26 25 25 24 24 23 22 21 19 18 17 16 15 16 16 15 12 12 15 17 18 18 17 16 16 15 14 13 10 8 6 4 1 2 3 3 6 6 6 11 20 39 38 22 20 21 39 66 75 74 78 84 86 91 93 93 94 89 85 85 88 85 78 73 71 74 78 82 77 72 74 74 74 71 73 74 73 79 82 87 87 80 80 88 94 93
25 27 27 27 27 26 26 25 24 23 21 20 18 16 15 15 16 16 13 12 15 17 17 18 18 17 16 16 16 14 10 9 5 4 5 2 3 3 5 6 5 10 18 34 34 22 19 22 40 66 74 68 75 88 87 90 92 91 91 83 77 79 85 88 85 82 78 76 77 77 75 75 74 71 72 71 69 66 66 74 78 82 88 88 89 92 94 94
27 28 28 28 28 28 28 27 25 24 22 21 18 17 16 15 15 16 14 13 14 17 18 18 19 18 17 18 16 15 12 7 4 9 12 5 2 3 4 4 6 10 15 29 34 26 21 26 48 69 70 64 74 86 83 85 89 88 88 78 75 81 86 89 89 87 80 77 76 74 75 76 76 73 72 69 65 63 64 72 75 78 88 89 92 95 92 92
28 28 28 29 29 29 29 28 27 25 24 21 20 17 15 15 15 15 14 14 16 17 18 18 19 18 18 19 17 17 10 4 11 21 22 15 5 2 3 2 6 13 14 24 33 29 24 33 57 71 67 64 71 77 73 80 85 82 82 78 80 83 86 91 92 89 83 79 76 72 73 75 75 73 72 66 60 61 64 73 78 82 86 78 83 95 92 91
28 29 30 30 30 30 29 29 27 26 24 22 21 18 16 15 15 15 13 15 18 18 18 18 20 20 20 20 18 17 10 6 18 25 24 21 12 4 3 1 7 18 16 21 30 25 25 42 61 67 66 66 69 68 68 79 83 78 76 79 87 85 86 92 92 90 84 77 74 74 77 75 70 70 71 66 64 67 65 71 82 89 88 77 80 93 93 91
29 31 30 30 30 29 30 29 27 25 24 22 20 18 16 16 15 15 14 16 18 18 18 18 21 22 20 20 19 17 12 9 13 21 21 18 15 8 2 1 9 21 19 21 27 19 25 50 62 63 66 65 66 68 69 78 81 78 73 77 89 89 88 92 92 89 80 77 78 77 78 73 68 70 72 69 71 73 64 66 81 91 92 87 87 92 93 91
30 31 29 29 29 29 30 30 27 24 23 22 20 17 16 16 16 15 17 18 18 18 19 20 21 22 21 21 20 18 14 7 8 21 24 14 10 8 3 2 12 23 21 23 25 15 26 52 60 63 66 61 60 64 70 76 77 77 73 75 87 91 91 93 92 87 79 81 80 77 80 79 74 69 70 71 73 73 67 70 84 90 91 92 90 91 92 90
31 30 28 29 29 29 31 29 23 20 21 21 19 17 16 15 16 17 19 18 18 19 20 21 21 22 22 21 21 17 11 7 9 21 25 14 6 5 3 3 14 26 23 25 24 14 31 56 61 61 61 58 53 53 66 71 68 72 70 71 83 91 94 94 92 87 83 83 78 77 83 82 75 69 71 74 75 75 75 80 87 89 91 92 91 90 87 86
30 30 29 29 29 28 30 28 21 18 18 18 17 16 15 16 17 19 19 19 19 19 19 20 20 21 22 21 21 13 9 16 18 20 24 17 5 4 4 3 17 29 25 27 22 15 36 58 63 62 55 52 46 41 57 64 61 70 71 72 84 91 92 93 93 91 86 83 77 78 81 80 74 70 71 75 77 77 80 86 89 88 90 91 92 90 85 82
29 29 29 29 29 28 29 27 20 17 17 16 16 15 15 17 19 20 20 20 19 19 17 16 17 19 20 21 20 11 13 29 30 23 24 17 7 6 5 6 19 29 26 24 20 17 38 59 68 66 49 43 41 35 50 62 63 71 71 75 88 93 92 91 92 90 84 83 81 78 78 77 73 70 70 74 78 76 80 86 87 87 88 90 92 91 88 85
29 29 29 29 29 28 29 27 20 17 16 15 15 15 18 19 20 21 20 20 20 19 15 13 14 16 20 21 18 10 13 29 33 28 23 15 12 9 6 11 20 27 24 21 21 23 40 57 66 63 45 38 37 35 53 67 67 73 72 74 87 91 92 92 90 86 83 85 80 71 75 76 71 74 75 75 77 75 79 83 84 86 86 88 90 90 90 89
28 28 28 28 28 28 29 27 21 16 15 16 16 18 19 20 21 21 20 19 19 20 16 13 13 14 19 19 13 9 10 21 30 31 22 13 15 13 10 14 21 28 26 19 18 26 42 50 53 53 44 39 34 37 64 77 75 80 75 74 88 94 93 95 93 87 84 86 78 71 80 80 72 76 77 75 76 75 78 81 82 84 85 85 87 89 90 90
27 28 28 28 28 28 29 29 21 16 16 17 18 19 21 21 22 22 22 19 19 20 18 17 16 19 23 16 10 8 9 20 29 31 26 16 16 16 14 15 19 28 29 22 18 25 41 45 46 46 41 40 33 42 73 82 79 82 80 82 89 94 95 92 92 88 85 89 84 77 83 80 71 75 76 75 75 73 75 78 79 81 82 83 84 88 90 90
26 27 27 27 27 26 28 30 23 17 16 17 19 22 26 28 27 27 26 22 21 20 19 22 22 27 32 21 11 9 12 24 27 26 28 22 18 18 18 16 18 23 25 24 18 23 39 45 43 40 39 37 29 49 79 79 79 81 84 90 83 85 94 90 89 91 88 90 89 82 81 80 71 72 76 75 73 71 73 76 77 78 79 81 84 87 89 89
25 26 26 26 27 26 27 30 26 19 17 18 21 25 32 36 36 36 33 28 26 23 22 27 25 26 32 26 17 15 21 29 27 24 25 23 22 20 20 19 19 21 20 19 16 18 31 36 32 32 36 31 26 57 82 81 87 83 77 83 76 79 92 91 91 96 92 88 90 84 80 81 73 70 76 75 73 71 71 75 76 77 78 80 84 85 86 87
24 25 26 26 26 25 26 30 29 22 21 24 24 25 33 38 36 38 39 35 30 29 30 33 31 28 25 22 22 24 26 28 28 29 27 24 24 20 20 22 21 21 20 20 18 16 19 25 28 30 31 27 33 61 74 77 89 83 73 76 74 74 81 89 94 95 91 87 89 85 78 80 73 69 74 75 74 71 70 74 74 76 78 79 82 83 84 86
23 24 25 25 26 26 25 29 30 26 27 30 27 26 32 33 32 35 40 38 34 36 40 38 35 30 20 17 24 27 26 26 28 31 31 28 25 20 19 22 22 21 21 22 23 22 21 24 28 30 25 22 40 61 60 62 73 76 77 75 74 73 71 81 91 93 91 87 90 87 80 81 74 67 71 74 75 72 69 71 73 75 77 79 82 81 81 83
22 23 24 25 25 25 24 27 29 28 29 31 29 29 32 30 31 35 38 40 38 36 36 34 30 27 20 19 24 25 25 28 29 30 32 27 20 20 19 21 23 21 19 20 22 26 28 29 31 34 28 20 39 57 50 46 54 65 74 73 75 78 73 78 87 92 91 89 92 87 80 82 77 69 69 73 74 73 71 71 73 74 77 80 80 79 80 80
22 22 23 24 24 25 24 25 28 29 30 31 31 31 32 32 32 35 38 39 36 30 28 28 29 28 25 23 24 25 27 28 28 29 27 18 15 21 22 23 23 18 16 18 21 27 31 36 37 34 27 20 37 54 45 41 50 57 64 68 74 76 76 82 87 91 92 92 94 85 78 79 78 73 70 71 72 71 71 72 74 75 77 79 77 77 79 73
21 21 22 23 24 24 24 24 26 29 30 30 32 33 33 35 33 33 35 32 28 28 27 27 27 26 24 23 24 26 28 27 28 27 21 17 18 21 22 21 19 16 19 21 23 27 33 42 38 27 21 18 31 47 40 40 54 57 57 64 72 75 80 85 88 92 93 94 95 87 81 79 77 76 73 71 69 67 69 72 74 75 76 77 77 78 76 69
19 20 21 22 23 23 24 24 24 27 30 30 32 33 34 35 33 32 33 31 28 27 25 24 24 23 21 23 23 25 28 27 27 24 20 21 22 20 22 21 17 19 23 26 30 34 37 41 33 23 21 16 22 33 28 31 47 53 52 59 69 75 82 92 93 91 89 92 96 91 88 85 78 76 78 74 67 62 65 70 72 73 75 75 75 76 74 71
18 19 20 22 22 22 23 23 23 26 29 30 30 32 32 33 32 31 32 33 30 25 22 22 22 21 21 22 22 24 27 27 26 24 21 23 23 22 24 23 22 24 26 29 35 42 41 34 25 20 21 17 17 21 21 24 35 42 42 45 63 77 80 91 98 92 87 87 91 92 93 94 87 82 84 82 73 67 68 71 71 72 73 73 71 71 70 70
16 18 19 20 21 22 23 23 24 26 28 29 29 30 31 32 31 30 30 32 34 28 21 22 22 21 22 22 22 24 26 26 25 24 22 21 22 25 26 25 28 28 26 27 30 37 33 23 21 20 19 18 16 16 18 21 27 41 44 38 56 77 74 80 92 89 87 86 85 91 96 97 97 91 86 86 82 75 71 71 70 71 71 71 70 68 67 66
15 17 17 19 20 21 22 23 25 27 27 27 29 30 30 31 31 30 30 32 32 25 19 21 21 21 22 22 23 24 24 24 24 23 22 20 20 25 26 25 30 30 27 25 25 29 26 20 20 20 18 18 17 16 16 15 18 32 44 44 53 67 71 81 87 82 91 96 85 88 97 96 97 94 85 85 85 75 71 70 66 68 70 70 70 67 66 64
13 16 17 18 20 20 21 22 23 25 24 25 28 30 29 31 32 30 30 31 27 19 16 19 18 18 20 21 23 24 23 23 22 23 23 21 20 23 24 22 25 29 25 23 24 24 23 21 19 18 19 18 17 18 15 15 17 17 27 45 56 61 71 83 81 74 85 93 82 84 96 98 97 95 87 83 83 75 70 69 63 65 68 68 68 66 64 64
12 14 16 17 19 20 20 20 22 24 24 26 27 27 28 31 32 30 29 31 28 19 14 15 14 16 16 19 24 23 24 25 23 24 23 22 22 22 24 22 22 24 21 24 30 25 21 20 20 18 18 18 18 19 16 14 17 15 22 44 60 64 71 76 74 73 77 83 87 88 91 96 97 94 87 83 84 79 72 69 65 66 67 65 65 65 63 61
12 13 14 16 18 19 20 21 23 24 25 26 26 26 27 30 33 32 30 32 28 16 13 12 12 14 15 20 24 19 20 23 23 25 24 22 22 20 21 22 21 21 19 25 32 26 19 19 21 19 18 19 17 16 17 12 16 29 38 50 59 61 64 64 67 75 76 81 96 95 86 92 98 95 89 87 88 83 74 69 67 67 66 64 63 63 62 60
11 12 13 16 17 18 20 21 22 23 24 25 26 26 27 30 33 31 31 31 22 13 13 13 11 12 13 18 20 15 16 19 20 24 23 21 21 19 20 20 19 20 18 22 25 21 17 18 18 17 18 18 15 16 15 10 22 44 53 55 58 59 60 60 64 74 80 81 88 91 81 83 96 100 95 94 93 85 73 66 64 67 67 64 62 61 61 60
10 11 13 15 17 19 20 21 21 21 23 24 27 28 30 33 31 29 30 26 19 14 13 12 11 11 13 17 19 15 15 17 20 24 22 21 20 19 19 19 18 18 18 19 20 18 17 19 18 16 17 15 15 17 12 16 37 51 55 56 58 58 57 61 64 71 84 80 71 76 76 74 85 94 91 89 88 85 78 67 62 67 68 65 61 60 59 59
10 11 14 15 17 18 20 20 20 22 24 25 28 30 32 33 31 30 29 22 17 16 12 12 13 11 13 19 20 16 14 17 21 23 22 21 20 19 19 20 19 19 21 20 19 18 16 19 19 15 15 15 15 14 14 30 46 47 50 53 57 65 65 68 73 77 86 77 59 64 73 73 77 78 74 72 72 79 84 73 64 65 68 66 62 58 58 57
10 10 14 16 16 17 19 19 21 23 24 26 29 30 32 32 28 28 28 21 18 16 13 13 14 12 13 16 16 14 14 18 19 19 21 21 20 20 20 21 22 23 25 24 21 19 17 17 17 15 16 15 14 15 23 41 42 39 46 45 50 72 79 78 82 80 76 65 54 61 73 76 72 65 64 65 64 73 84 77 65 63 66 67 64 59 57 56
9 11 14 15 16 17 18 19 22 22 23 28 29 27 31 31 26 27 28 22 18 16 15 15 14 13 13 12 13 12 12 16 16 16 19 19 20 22 19 19 21 21 23 24 21 19 17 17 15 16 18 16 12 15 31 48 42 37 43 36 39 63 78 81 79 72 65 58 55 62 73 74 63 60 66 64 60 65 77 79 70 65 68 69 66 60 56 54
8 11 14 15 16 17 18 20 21 22 25 27 24 24 29 30 27 29 28 23 20 18 15 14 13 13 14 14 15 13 12 15 15 14 17 18 20 21 19 18 18 17 18 21 21 18 19 19 15 15 17 15 14 13 24 41 42 38 36 27 30 44 56 64 64 60 58 60 66 69 74 73 63 65 71 66 62 63 73 82 76 72 73 71 69 63 56 54
10 13 14 15 16 17 19 20 19 22 24 23 24 29 31 29 27 26 24 20 19 18 14 14 15 15 16 17 17 15 13 15 15 15 16 17 18 19 18 16 15 15 16 21 22 19 21 20 14 15 17 15 13 12 21 34 39 41 36 28 31 33 39 48 51 53 56 64 79 78 72 72 65 65 70 68 66 65 75 86 81 77 77 74 74 71 62 57
12 14 14 16 17 18 19 19 20 23 22 23 27 27 26 26 24 23 24 20 15 15 15 14 16 16 17 18 19 17 14 15 16 15 16 18 17 17 16 15 15 14 15 20 22 20 21 18 14 16 17 15 12 12 22 29 33 43 43 34 32 30 34 45 52 57 56 59 74 76 70 70 65 64 71 71 68 68 76 86 88 87 83 80 82 80 72 62
15 15 16 17 18 18 19 18 21 20 19 25 31 28 25 23 19 21 25 19 14 16 16 16 17 18 19 19 19 18 15 15 16 16 17 18 17 16 16 15 15 15 15 16 17 18 18 16 16 16 15 16 14 14 23 27 27 39 42 33 30 31 32 40 53 62 58 55 66 71 67 68 69 74 81 77 71 73 75 79 89 95 90 86 86 83 77 67
16 16 18 20 20 20 19 18 20 18 20 30 41 39 31 22 18 20 20 16 15 18 18 19 20 20 22 21 19 19 17 15 17 18 18 17 17 16 15 15 15 15 16 16 16 18 18 16 16 15 16 17 15 16 26 28 23 30 34 27 27 35 37 41 52 58 55 57 67 71 69 65 63 73 82 78 75 77 75 75 82 89 89 87 86 84 79 71
18 20 22 22 20 19 20 18 17 18 22 30 39 37 27 20 19 18 16 16 17 18 18 20 22 22 22 22 20 20 19 17 18 20 19 18 18 15 14 15 15 15 17 17 16 17 19 19 18 15 15 16 15 17 24 27 25 27 32 27 24 29 34 38 44 44 47 58 65 69 73 65 58 67 74 72 73 75 75 76 77 79 85 87 85 83 80 75
20 22 23 23 19 17 19 17 16 22 28 30 31 29 24 21 18 14 14 17 17 17 19 20 21 22 22 22 21 20 21 20 18 19 19 17 17 16 14 14 15 16 17 18 18 20 21 22 21 17 15 17 19 19 19 23 26 29 34 32 25 24 27 32 38 40 44 53 59 61 60 57 61 73 76 70 70 72 72 75 75 77 85 86 82 79 76 75
21 24 25 23 19 17 17 16 21 28 29 28 28 26 24 23 18 13 13 15 15 16 17 19 21 21 21 22 22 22 21 20 19 18 16 15 16 16 14 15 18 17 16 18 20 21 22 24 24 20 16 17 17 16 16 19 21 24 31 31 24 23 29 34 41 46 46 47 52 51 47 54 67 74 76 73 70 69 70 73 76 81 85 84 80 77 73 71
22 27 27 23 20 19 17 21 35 37 26 22 23 21 22 22 16 13 14 14 14 15 16 18 20 22 23 22 22 25 23 20 20 18 15 15 17 16 16 19 22 18 17 19 21 23 26 30 31 24 18 17 16 18 20 18 17 19 23 24 21 21 27 32 37 46 50 51 53 49 47 61 72 71 74 76 71 70 73 74 77 83 85 84 82 78 73 72
27 30 27 21 20 20 19 26 38 37 25 21 20 17 17 17 14 13 16 16 15 15 15 17 19 21 24 23 23 26 23 20 20 18 16 17 18 16 18 23 25 23 20 17 19 28 35 38 36 26 20 17 14 18 20 15 16 20 19 19 19 19 22 26 33 42 45 49 51 47 47 60 72 75 77 78 77 77 77 78 79 84 90 90 87 81 74 73
31 31 27 22 21 21 21 24 28 28 30 27 20 16 14 14 15 16 17 19 18 16 16 17 18 20 23 25 26 27 25 21 20 18 17 19 19 17 19 23 26 27 27 24 26 31 35 39 37 24 19 21 17 17 18 13 15 18 19 20 22 25 26 30 40 44 43 51 53 40 42 59 72 80 81 79 80 80 80 84 85 87 94 95 94 91 84 82
30 27 25 22 22 21 19 21 22 23 31 32 22 18 17 13 14 17 18 21 21 20 20 18 19 22 24 27 27 27 26 22 19 20 20 18 17 16 18 21 23 29 38 41 39 36 34 38 39 28 22 25 25 23 22 22 20 16 18 25 28 29 28 32 44 44 41 58 59 39 45 70 82 85 85 79 77 80 86 90 90 94 98 97 97 99 96 94
33 32 32 25 18 19 21 26 29 23 26 32 25 19 18 16 15 16 19 22 22 24 25 22 23 23 24 26 28 28 28 24 23 28 27 22 19 17 19 21 20 26 37 39 35 37 39 39 43 41 30 25 28 30 28 27 24 16 16 25 31 34 33 33 38 39 41 56 58 50 61 82 88 86 87 83 78 81 89 91 92 96 100 100 100 100 100 100
37 42 48 40 26 26 29 37 47 39 27 28 26 21 20 20 19 18 19 22 23 24 26 26 25 23 24 29 28 28 33 30 25 29 31 30 28 24 20 21 19 19 25 27 27 35 39 34 36 39 29 23 27 27 24 24 23 19 20 25 31 40 41 33 31 38 45 45 46 60 76 81 80 80 82 83 80 83 89 90 91 95 98 100 101 99 100 101
41 47 55 50 38 36 36 42 57 51 30 27 28 23 23 24 24 23 22 23 23 23 26 28 25 24 29 35 32 33 42 37 27 30 33 32 33 27 19 18 18 17 20 22 27 36 36 29 31 31 23 22 25 21 18 22 23 26 33 35 36 40 39 37 38 44 47 40 40 63 80 74 70 74 76 78 80 84 89 89 89 94 98 100 100 99 100 100
45 50 55 53 44 45 49 54 57 44 33 39 36 23 23 26 25 24 24 26 26 24 27 29 25 23 28 37 39 39 41 36 27 31 35 31 31 30 23 20 18 17 20 23 29 37 38 35 38 36 26 21 22 21 18 20 21 23 28 33 38 43 45 48 51 52 54 55 53 63 76 71 64 65 70 73 77 83 88 88 88 92 96 99 98 96 98 100
55 59 63 60 53 56 62 58 47 31 29 41 36 23 25 28 26 26 26 29 30 27 25 26 25 24 24 30 33 30 29 30 26 26 31 30 30 31 28 24 21 19 21 27 32 35 40 48 48 38 28 22 20 22 19 17 20 21 22 25 31 42 52 57 58 57 59 66 67 67 75 75 63 60 67 72 74 78 82 84 86 89 93 95 94 94 97 100
61 62 66 67 60 64 67 55 44 35 26 28 31 30 32 29 27 29 27 27 31 28 23 22 25 26 25 26 26 22 23 29 26 21 23 24 24 25 25 24 23 21 22 28 37 38 43 54 52 35 26 24 20 21 22 19 18 19 24 29 29 34 47 55 59 61 61 68 74 71 70 70 63 61 69 72 72 74 77 79 82 86 89 91 93 96 100 100
58 57 66 72 60 58 64 53 41 34 22 25 38 41 35 28 26 30 29 26 28 27 25 26 26 27 28 27 26 24 23 25 23 18 19 21 23 25 26 27 26 27 28 29 38 48 50 54 56 43 27 22 23 24 25 23 21 22 28 34 32 33 41 50 57 62 61 63 67 65 63 65 64 64 69 72 71 72 74 76 80 84 85 89 96 99 100 100
Wind_Speed
9 9 8 8 8 8 8 7 7 7 7 8 9 9 9 9 10 11 10 9 9 8 8 8 8 9 9 9 10 10 11 12 13 16 18 12 10 12 11 14 16 19 24 25 23 22 20 19 18 18 16 11 7 8 8 6 4 2 0 1 1 2 2 2 6 6 7 10 11 8 9 13 12 10 13 12 14 15 12 12 12 12 14 19 23 28 27 25
9 8 8 8 8 9 9 9 9 9 8 8 8 9 9 9 9 10 10 10 9 9 9 9 9 9 9 9 9 11 12 12 14 17 15 7 7 13 14 17 19 21 26 28 26 23 22 21 21 20 16 8 6 7 7 5 4 3 1 1 1 1 1 1 3 4 6 11 12 9 10 13 14 14 13 10 12 15 14 12 14 18 19 21 26 28 25 24
9 8 8 8 8 9 9 10 11 11 10 9 8 8 9 9 9 9 9 9 9 9 9 9 9 9 9 8 9 10 11 12 14 15 11 7 9 13 16 19 20 22 26 28 24 21 20 20 22 20 14 7 5 6 6 4 2 2 3 1 1 1 1 2 2 3 8 15 14 11 12 13 13 13 11 11 13 12 12 13 16 20 22 25 28 26 25 23
10 9 9 9 9 9 10 10 11 12 12 11 9 8 8 8 9 9 9 9 9 9 9 9 9 9 8 7 8 8 9 10 9 9 7 6 10 13 18 20 20 22 24 26 22 18 17 19 21 18 12 6 5 5 5 5 3 1 2 2 0 1 3 3 3 6 13 17 15 14 14 12 11 11 13 15 12 7 10 13 17 24 27 29 29 26 24 23
11 11 11 11 11 11 11 11 11 12 12 12 10 8 7 7 8 9 8 8 9 9 9 9 8 9 8 7 7 6 5 4 1 2 3 4 9 13 19 20 19 21 23 26 23 18 18 20 20 15 8 5 5 5 4 5 5 2 3 3 2 3 3 5 5 8 15 16 15 15 13 11 11 10 15 15 7 6 10 11 16 25 31 33 32 27 23 22
11 12 12 12 12 12 13 13 13 12 12 11 11 9 6 7 8 8 8 8 8 9 9 8 7 8 8 7 7 5 4 2 3 2 1 3 10 14 18 20 19 20 23 26 25 20 21 22 19 13 7 5 5 5 2 4 7 3 1 1 2 3 3 6 9 11 15 16 14 12 11 12 13 10 11 7 3 8 13 13 17 22 27 33 33 28 24 22
12 13 13 13 13 14 14 15 14 13 12 11 10 8 6 6 7 7 7 7 9 9 8 8 7 8 7 8 7 6 8 6 2 1 1 1 10 15 18 20 20 22 24 27 27 22 24 24 17 12 9 4 5 7 3 4 7 5 1 1 2 2 5 8 11 12 15 16 14 14 13 12 12 11 8 4 6 12 15 16 19 22 24 29 29 27 24 22
12 13 13 14 14 14 15 16 16 14 12 11 10 8 5 5 6 6 7 8 9 9 8 7 7 8 7 7 6 6 9 9 3 1 1 1 9 16 19 21 22 24 26 28 27 24 25 22 16 12 8 4 3 6 5 4 7 7 2 3 1 2 8 11 13 15 17 17 17 17 12 8 11 12 8 7 11 14 17 18 21 23 24 26 26 25 23 21
13 13 13 14 15 15 16 16 16 14 12 11 9 7 5 4 5 6 7 8 8 8 8 7 7 8 7 6 6 5 6 6 4 3 1 2 7 15 19 22 24 25 27 27 25 24 23 20 18 13 7 7 4 3 6 5 4 7 4 3 3 5 10 12 14 16 17 17 17 16 11 10 14 13 7 9 14 17 18 20 23 24 23 23 23 23 22 20
12 13 14 15 15 15 16 16 16 13 11 10 8 5 4 4 5 6 7 7 7 7 7 7 7 7 7 5 3 2 2 3 2 4 2 3 5 13 19 22 24 25 27 26 23 23 22 20 22 15 5 5 4 3 6 6 1 6 6 4 5 7 10 12 12 12 14 13 15 16 10 11 14 7 4 10 16 19 20 21 23 23 21 21 21 21 20 19
11 12 13 15 16 16 16 16 16 13 11 9 7 5 4 5 6 6 6 6 6 7 7 7 6 6 5 4 5 4 0 2 1 4 5 5 4 11 18 20 23 24 25 25 22 22 21 20 23 17 3 2 4 3 4 6 2 9 9 7 6 3 8 13 11 12 11 7 13 18 11 9 8 2 6 15 19 21 22 22 22 21 20 19 20 19 18 18
11 11 13 14 16 15 15 16 15 12 10 9 7 6 6 6 6 5 5 5 5 6 7 6 6 5 4 7 9 6 2 2 3 6 9 9 6 9 14 16 19 20 20 23 23 21 17 18 21 15 3 0 2 3 1 3 5 9 5 4 5 4 3 7 6 10 8 5 14 18 11 7 5 3 10 18 19 21 22 22 21 20 19 18 18 17 17 17
10 11 12 14 15 15 15 16 15 12 9 8 7 7 6 6 5 5 5 5 5 6 7 6 5 4 4 6 5 4 5 2 4 8 12 12 9 10 13 14 17 18 17 17 21 22 16 16 18 13 6 1 3 4 3 7 8 7 2 1 5 3 1 5 3 8 9 7 11 9 5 6 5 5 14 19 20 22 21 20 21 18 17 17 17 16 16 16
11 11 12 13 14 14 14 15 14 11 9 9 8 7 7 5 5 5 5 4 5 6 7 6 5 4 5 5 2 2 6 4 5 9 11 12 11 11 12 13 15 17 16 13 17 20 16 16 16 11 8 4 4 3 5 7 5 5 2 1 2 2 2 4 3 6 9 7 6 1 2 7 6 7 16 20 21 23 20 19 19 18 17 16 16 16 16 16
11 11 12 13 14 14 13 13 14 11 10 9 8 8 7 6 5 5 5 5 5 6 6 6 6 5 7 7 2 3 5 6 7 8 10 11 11 12 13 13 14 15 15 13 15 18 16 14 12 7 4 4 2 3 5 4 2 2 2 2 2 2 2 1 4 2 5 5 3 1 3 7 6 10 17 19 21 22 20 19 19 18 17 16 16 15 15 16
12 11 12 13 14 14 12 12 13 12 10 9 9 8 7 7 7 5 5 4 5 6 6 6 6 5 6 4 3 6 6 5 6 7 8 9 9 10 14 14 13 14 13 11 12 17 17 11 6 3 3 3 2 5 6 3 2 3 2 2 4 4 3 2 1 2 2 6 4 1 3 6 6 11 18 19 20 20 19 20 19 18 18 16 15 14 14 15
12 11 11 12 14 14 11 10 12 11 10 10 10 8 7 9 10 7 4 4 5 6 7 7 6 6 4 2 6 6 5 3 5 5 5 9 8 8 13 16 14 14 13 12 10 13 16 10 4 3 2 2 2 5 6 4 4 4 2 2 3 5 5 4 1 5 6 8 6 3 4 6 6 13 19 18 19 18 18 19 19 18 18 16 14 14 14 14
13 12 12 12 13 14 10 9 11 9 10 11 10 7 7 11 13 9 3 4 6 6 7 5 3 3 2 3 3 3 5 3 5 4 4 10 10 6 12 17 16 16 15 12 10 10 12 7 3 2 2 2 4 7 5 3 6 7 4 2 3 5 5 5 2 4 7 8 6 5 5 6 8 14 19 19 18 17 17 19 19 18 17 16 15 14 14 14
14 12 12 12 12 13 10 8 9 8 10 11 10 7 7 12 13 7 4 7 7 5 4 2 2 2 2 3 2 2 3 5 4 4 7 11 11 8 12 16 17 18 15 9 6 7 9 6 2 4 4 4 5 9 5 0 4 9 7 4 4 5 4 4 4 3 7 7 7 7 6 9 11 13 17 19 19 16 16 16 17 17 16 16 15 15 14 15
14 13 12 12 12 13 10 8 8 8 9 10 10 7 7 11 8 3 7 12 10 6 7 7 9 9 6 3 1 3 5 6 4 6 10 12 14 14 14 16 17 14 10 9 7 6 8 5 5 6 4 4 7 10 5 1 4 8 7 5 5 5 2 3 5 4 6 2 6 6 7 10 12 12 15 19 19 16 16 16 16 16 16 16 15 15 15 16
14 13 12 12 12 12 11 8 7 7 8 8 9 7 6 7 5 4 10 13 12 11 9 8 9 11 6 2 1 3 8 6 5 11 13 14 17 14 13 15 13 8 5 8 9 5 6 6 7 6 3 3 5 8 4 1 6 8 6 5 4 3 2 2 5 6 3 1 3 5 8 10 11 12 14 18 19 17 18 17 16 17 16 15 15 15 16 17
14 12 11 11 11 12 12 8 5 6 7 7 6 7 8 8 7 8 8 9 14 14 7 6 8 8 4 2 2 3 7 6 8 14 15 16 13 7 10 11 8 7 5 8 9 5 5 7 8 4 2 2 1 4 4 1 5 7 4 4 3 3 4 4 5 7 4 1 2 3 6 8 9 11 13 16 18 18 20 18 17 18 17 16 16 16 17 17
13 12 11 11 11 12 12 8 5 5 6 7 6 7 10 10 10 10 5 6 11 10 5 5 6 5 2 2 5 7 7 5 7 14 17 17 11 7 11 9 6 9 8 9 9 7 5 5 6 3 4 5 3 4 5 2 3 4 3 3 3 6 5 2 4 7 5 1 3 4 4 5 7 9 10 11 14 15 17 16 16 17 18 19 19 19 20 18
13 12 10 10 10 11 10 7 5 5 5 7 7 7 10 11 11 10 5 4 5 6 4 2 2 2 1 3 6 9 8 7 8 13 17 16 12 10 10 7 9 9 6 8 8 8 4 1 2 5 5 5 4 4 5 5 3 3 4 5 4 9 7 4 7 8 5 1 4 7 3 4 7 9 10 8 8 11 14 15 15 16 18 19 19 19 20 19
12 11 10 9 9 10 9 6 4 5 6 8 8 8 10 12 11 8 5 2 2 3 3 1 2 0 3 4 6 8 8 9 8 12 16 16 13 10 7 7 7 6 5 7 7 6 4 2 4 5 4 5 4 5 5 5 3 2 5 6 6 10 9 10 11 9 5 3 6 8 4 4 8 10 12 10 8 11 14 15 17 17 17 17 17 19 19 19
12 11 9 8 9 9 8 6 5 7 9 8 8 9 10 11 10 7 5 1 1 3 3 1 1 2 3 3 8 10 8 6 7 11 14 14 12 10 7 4 2 3 5 6 4 2 2 3 5 4 5 6 5 5 4 4 4 1 3 5 8 10 10 13 12 7 3 2 6 9 4 2 7 11 12 12 12 13 13 14 17 18 17 18 19 19 20 20
11 10 9 8 8 8 8 7 6 7 7 6 7 9 9 9 8 7 4 1 2 3 3 2 1 3 2 4 10 8 5 7 7 10 14 13 11 9 8 3 2 4 4 4 3 2 3 5 3 3 4 5 5 5 4 6 5 1 1 6 11 11 11 13 10 4 1 3 5 7 3 0 3 8 10 12 12 13 12 13 15 16 18 20 21 20 22 24
11 10 8 8 8 8 8 6 5 6 6 6 9 9 8 9 7 6 3 2 2 3 2 2 1 2 2 6 8 3 5 10 7 7 13 14 9 7 6 5 5 6 3 4 5 2 3 6 5 5 4 4 5 3 5 8 4 2 1 6 10 10 10 11 8 4 2 2 4 6 4 1 0 3 8 10 11 13 15 15 14 15 19 21 22 22 24 26
11 9 7 7 7 7 6 4 4 6 8 10 11 8 8 8 5 2 1 2 2 2 1 1 1 2 2 5 4 2 6 6 2 6 13 12 7 4 4 6 6 6 3 2 4 2 1 4 6 7 5 5 4 2 6 9 3 3 7 9 8 6 6 6 5 4 3 1 4 7 7 3 0 2 7 9 11 14 14 13 14 15 18 21 22 23 23 26
10 8 6 5 6 6 5 4 6 8 11 12 10 8 7 4 2 1 1 2 2 2 2 2 1 0 1 4 2 1 3 2 3 9 11 7 5 4 5 6 5 5 4 2 3 2 1 1 3 4 6 5 3 2 4 7 10 11 12 11 9 6 5 3 1 2 2 2 3 9 11 5 2 4 8 8 8 11 11 10 13 15 16 20 23 23 23 27
9 7 4 5 5 5 5 6 8 10 12 11 10 9 4 0 0 1 2 2 2 2 3 2 1 0 2 3 2 2 2 2 3 8 7 4 4 5 4 5 4 3 3 1 3 1 1 2 2 4 8 5 3 4 2 8 16 12 8 9 7 5 3 2 2 0 3 2 1 6 12 7 4 4 7 8 7 10 12 11 13 15 16 19 23 24 25 29
8 5 3 4 5 5 7 8 9 11 11 11 12 8 2 2 1 2 1 2 2 1 1 1 2 1 1 1 1 2 1 2 2 3 4 2 3 4 2 1 2 3 3 3 3 1 3 4 3 4 7 8 6 5 4 9 12 8 7 9 5 3 3 2 1 2 4 2 2 5 11 6 4 2 5 9 9 12 15 15 17 19 19 20 22 26 28 31
6 4 4 5 5 5 6 8 10 11 11 13 12 3 2 2 3 1 1 1 1 1 1 1 2 1 1 2 2 1 1 2 1 1 3 1 2 3 1 2 1 1 1 2 2 3 4 3 4 5 4 8 9 5 6 7 7 8 8 8 5 4 3 2 2 2 3 2 1 6 9 4 3 3 4 8 11 13 18 21 22 20 19 21 23 28 30 32
4 2 3 4 4 5 6 8 10 11 12 15 8 1 1 3 2 1 2 1 1 1 1 1 1 1 2 1 1 1 1 3 2 2 2 1 2 2 1 2 0 0 1 2 2 3 4 2 7 8 4 8 10 8 9 8 7 9 7 6 6 5 3 3 4 3 1 2 4 7 6 3 2 2 1 5 8 11 16 21 22 17 17 21 23 26 29 31
1 2 2 2 3 5 7 8 10 11 14 13 4 2 3 2 1 2 1 2 2 1 1 1 0 1 2 2 2 1 0 2 2 3 3 2 2 1 1 1 1 1 1 2 1 1 3 2 4 4 3 8 11 9 11 11 8 6 4 5 6 5 4 1 1 1 2 4 4 4 3 1 1 1 4 4 6 10 14 19 21 18 19 21 20 22 26 29
2 1 1 2 4 5 7 8 9 11 14 9 2 3 2 0 1 1 1 2 2 1 1 1 2 2 2 1 2 2 3 3 1 2 3 2 1 2 0 1 0 1 1 2 2 1 2 1 2 2 2 8 11 13 13 11 7 4 5 6 2 2 2 1 1 2 1 3 3 3 3 1 1 3 3 2 5 10 14 18 19 19 22 21 17 18 21 25
3 2 1 2 4 5 6 7 8 11 11 5 3 3 1 1 1 2 1 3 2 1 1 1 2 2 1 1 2 3 3 2 1 1 2 1 1 2 3 2 1 1 1 3 3 1 2 2 1 4 5 6 8 13 12 8 6 5 7 7 5 2 1 0 1 2 3 4 2 3 5 3 1 1 2 4 7 10 13 16 17 18 21 20 16 16 18 22
4 2 1 3 4 4 5 6 8 10 8 3 3 2 0 1 1 3 3 3 1 0 2 2 1 1 0 1 1 3 2 1 1 1 2 1 1 1 3 2 2 1 2 3 3 1 2 3 1 3 4 3 7 10 7 4 2 1 5 8 5 2 3 2 2 3 4 3 1 2 4 4 4 3 4 7 9 10 13 15 16 18 20 19 17 17 18 19
4 2 2 5 5 4 5 6 8 8 4 2 2 1 0 2 3 4 4 1 1 1 2 1 1 0 1 1 1 2 2 1 1 1 1 1 1 1 2 1 2 2 2 3 3 1 1 2 1 2 2 5 7 7 7 7 3 2 4 8 3 2 3 3 2 2 4 3 2 2 2 4 4 2 5 9 9 11 14 13 15 18 18 18 19 20 19 18
4 2 3 5 6 5 5 5 6 7 3 2 1 1 1 3 4 7 8 3 0 2 2 0 0 1 1 1 1 2 3 3 2 1 1 1 1 1 1 1 2 3 1 2 2 1 1 2 1 2 2 4 6 5 7 10 9 5 6 8 4 1 1 2 1 0 1 2 2 2 2 2 1 1 3 8 9 10 13 12 14 17 17 18 21 23 22 19
4 2 2 4 4 4 5 5 5 4 1 1 0 1 2 3 5 9 10 7 4 4 3 2 1 2 1 1 2 2 2 3 2 1 2 1 0 0 1 1 3 2 1 2 1 0 1 1 2 0 2 5 3 1 4 7 9 9 8 8 7 4 3 4 4 1 0 1 1 1 2 1 3 2 1 5 7 9 12 14 15 15 15 18 21 22 21 20
4 2 1 2 2 3 4 3 2 1 1 1 1 2 3 4 4 7 10 9 6 4 4 4 3 2 1 1 2 2 2 3 2 2 2 2 1 1 3 6 4 3 1 1 0 1 0 1 1 2 1 2 0 1 2 3 2 4 3 6 8 7 6 7 6 3 2 1 1 0 2 1 3 1 2 6 8 9 12 14 15 15 15 18 21 22 21 20
3 2 1 2 2 2 3 1 1 1 0 1 2 1 2 4 3 5 7 8 6 4 4 4 2 3 3 1 1 2 2 2 3 3 2 2 2 1 6 9 2 3 1 0 1 1 1 0 1 2 0 1 1 3 2 1 2 3 1 2 6 6 4 3 2 4 5 4 2 2 2 1 2 2 4 7 9 9 10 11 13 14 14 16 19 23 26 25
3 3 2 3 2 1 2 1 0 1 1 2 2 2 3 3 4 5 5 5 5 3 2 3 2 3 3 1 2 3 2 1 2 3 1 1 1 2 6 10 4 1 1 1 1 1 1 1 1 1 3 3 3 4 4 2 2 2 1 1 2 3 5 4 3 3 5 3 2 4 3 2 3 4 6 9 10 10 9 9 11 12 13 14 15 18 24 26
3 1 2 4 3 2 3 2 0 1 1 1 2 2 3 2 4 6 4 4 6 3 1 2 2 2 2 1 3 4 4 2 2 1 0 0 0 2 6 10 7 3 2 2 2 1 0 1 1 1 4 5 4 4 4 2 1 0 1 2 2 4 7 5 3 3 5 3 2 3 2 3 4 6 8 10 10 10 9 9 10 10 10 11 13 15 17 19
2 1 1 3 4 5 6 5 3 1 1 1 1 2 2 1 2 5 5 5 7 6 3 3 3 2 2 2 3 5 6 5 3 2 1 1 1 2 6 9 9 8 5 3 2 1 1 2 2 2 2 1 0 1 1 1 1 1 1 3 2 2 3 3 3 4 4 4 3 3 2 5 8 10 10 11 10 10 10 10 11 10 9 10 11 13 15 16
2 1 1 1 3 5 5 6 6 3 1 0 1 1 2 1 1 4 5 4 7 7 4 3 4 3 1 2 3 4 5 4 4 3 1 2 2 3 5 6 9 12 7 4 4 1 2 3 3 4 5 4 2 2 1 1 1 2 2 2 2 1 1 4 5 3 6 6 4 3 6 8 11 13 13 12 11 9 10 12 12 12 10 10 12 14 15 17
3 2 2 2 1 1 1 4 6 3 2 1 1 0 2 2 2 3 3 3 5 8 3 2 6 5 1 1 2 2 3 2 4 2 1 2 2 3 4 3 7 13 9 4 5 2 2 2 3 2 3 3 4 4 3 3 3 4 5 4 2 1 2 3 2 3 6 4 3 7 12 10 10 14 15 13 12 11 12 13 13 13 12 12 12 13 14 15
4 3 3 3 1 1 1 4 4 2 2 1 1 1 1 2 3 2 2 2 3 6 5 2 5 7 3 1 2 2 2 2 3 2 1 2 2 2 3 2 4 11 8 3 5 3 0 1 1 0 1 4 6 6 6 5 5 7 9 9 7 3 2 2 2 3 3 2 1 9 13 8 7 13 15 15 16 15 14 14 13 14 14 13 13 13 12 12
5 4 2 2 1 0 3 4 1 2 2 1 1 2 1 1 3 2 2 3 2 3 4 4 3 4 5 5 5 4 2 1 3 3 1 1 1 1 2 0 2 7 7 3 3 3 1 1 1 1 1 4 8 7 6 4 4 8 11 11 10 6 3 3 3 3 3 3 3 8 10 5 6 14 17 17 17 17 15 15 14 14 15 14 14 14 12 11
5 5 5 2 1 3 4 2 2 1 1 1 1 2 2 1 2 3 3 5 3 2 2 4 3 2 4 7 8 5 2 1 1 2 2 2 1 1 1 0 2 4 5 4 2 3 3 1 1 1 2 3 7 7 5 2 1 5 11 13 12 6 1 1 1 0 1 5 9 8 6 4 8 16 17 16 17 17 16 15 15 15 15 15 15 14 12 11
5 5 5 2 1 3 3 1 1 1 2 1 1 2 2 3 3 3 3 5 5 4 2 2 2 2 4 6 7 6 4 2 2 4 2 3 4 6 5 4 3 3 3 3 1 2 2 0 1 1 1 2 5 6 4 1 3 1 8 11 10 6 3 2 1 1 3 7 8 4 2 3 10 16 16 16 17 17 16 16 16 16 16 16 15 14 12 12
Wind_Direction
4 6 6 3 1 358 356 351 344 336 326 317 309 303 300 303 310 310 305 296 292 291 287 284 285 287 290 291 287 281 277 269 268 263 255 256 241 223 201 191 195 191 183 177 178 176 166 166 167 163 160 161 174 192 205 223 248 269 255 183 210 200 185 178 177 160 137 140 147 159 148 130 128 120 117 113 103 107 105 96 102 107 122 140 148 151 151 151
7 10 8 4 359 356 353 349 346 341 336 328 316 305 300 300 304 307 304 297 293 294 292 290 287 286 289 290 289 287 283 278 276 264 254 261 239 215 197 189 193 193 187 180 179 178 170 166 166 162 158 155 172 197 210 221 238 229 227 224 211 209 143 77 147 134 136 144 140 145 143 132 132 132 134 125 117 119 112 107 113 113 119 136 146 149 149 153
12 13 10 7 360 353 349 346 342 338 337 334 324 312 301 298 302 304 299 293 291 293 295 297 293 289 287 288 292 291 290 294 285 270 264 251 228 208 194 193 192 191 192 186 180 181 180 172 167 162 156 156 174 197 208 210 242 227 227 237 148 177 148 114 137 129 137 142 135 136 133 125 133 140 139 135 134 137 134 136 135 130 132 139 146 150 151 156
14 14 11 7 0 354 348 343 338 334 332 331 328 317 303 299 300 300 294 288 288 293 298 300 296 291 289 291 293 296 304 307 289 266 267 235 219 208 195 195 192 189 193 188 181 182 184 176 167 161 157 159 175 201 214 210 226 219 226 262 338 205 170 142 149 137 140 142 133 133 129 122 135 141 140 140 140 152 159 156 151 147 144 145 149 152 156 159
16 15 13 8 2 355 347 341 336 332 328 327 326 321 307 296 297 299 293 286 288 293 298 299 296 293 293 296 292 297 311 311 285 225 253 211 207 204 196 195 191 186 188 186 182 180 181 173 162 157 161 163 173 202 229 213 216 242 243 269 280 207 168 136 146 141 139 137 128 132 130 126 134 137 148 152 148 161 166 165 157 153 151 153 153 153 158 160
15 15 12 7 3 355 349 343 337 334 328 324 322 321 307 292 295 298 292 287 291 296 300 298 296 295 294 300 294 286 264 216 74 68 272 208 197 196 195 193 187 182 182 182 179 178 176 168 161 160 169 171 186 207 231 203 213 244 232 271 297 217 163 140 145 142 138 133 128 130 124 127 134 135 152 152 109 144 158 163 155 151 151 154 155 154 158 162
13 12 9 6 3 356 351 344 340 337 330 324 321 319 304 291 295 296 294 291 297 303 303 299 298 299 298 298 294 282 260 247 340 346 265 196 191 193 192 188 183 179 178 179 177 175 173 168 164 164 167 170 200 218 238 204 209 243 271 125 283 203 154 148 143 141 139 131 125 125 120 127 136 139 145 113 106 143 158 164 155 148 150 152 153 155 158 162
10 8 6 5 2 357 352 347 343 338 331 327 323 318 307 297 297 300 304 302 307 308 305 303 300 300 301 298 293 290 271 257 275 244 131 108 188 190 187 183 181 179 179 182 179 175 173 170 168 162 173 193 195 209 214 203 207 233 250 119 152 136 143 146 137 138 134 127 126 121 109 111 134 139 135 120 131 148 156 158 152 148 151 152 154 156 159 162
6 4 5 3 1 357 353 350 346 341 335 332 330 325 318 313 312 315 315 312 312 308 307 306 300 300 300 295 289 290 275 263 258 217 122 75 186 186 184 182 180 179 182 185 183 178 173 171 170 165 189 202 190 206 196 205 220 214 202 113 130 123 138 144 136 136 129 127 128 115 96 108 132 134 119 129 141 147 149 150 150 151 152 154 155 159 162 163
2 3 3 2 1 357 353 353 352 350 346 345 347 342 338 333 329 325 319 315 311 312 311 303 300 300 296 291 282 274 280 290 251 205 132 98 174 181 183 185 180 179 183 183 185 184 179 177 175 174 191 187 201 258 203 219 251 167 158 108 117 121 139 141 132 133 123 122 127 117 104 115 134 144 133 145 147 146 144 145 151 153 155 156 157 161 164 166
360 2 1 1 1 358 355 356 359 0 2 4 7 6 357 342 333 329 324 318 317 322 318 308 299 289 288 270 241 234 33 35 144 173 143 137 169 173 178 185 181 180 181 180 182 186 185 182 180 182 179 157 222 281 219 231 188 146 142 110 100 96 145 135 126 135 121 114 123 116 107 115 134 155 145 151 152 149 146 148 155 156 158 160 158 160 164 166
357 360 0 0 1 359 357 359 4 8 12 16 15 12 356 342 340 337 338 333 330 333 325 313 294 274 275 258 251 248 222 65 104 144 151 158 161 160 172 182 183 183 181 178 179 181 183 183 186 190 191 29 271 322 244 189 133 135 136 114 93 44 126 111 114 145 128 126 132 120 110 128 143 115 143 154 154 151 147 151 157 158 161 162 161 161 164 166
353 356 358 359 0 360 358 360 4 8 14 16 9 3 354 351 351 346 353 350 340 340 332 319 295 279 271 260 268 250 218 206 101 134 153 164 163 161 172 179 183 184 183 183 181 178 177 179 187 197 212 286 8 16 92 115 115 120 87 107 108 84 84 24 39 141 123 139 151 138 135 156 151 126 151 158 154 151 149 154 159 159 162 164 166 165 166 169
350 354 356 358 0 360 358 357 360 5 9 7 1 360 1 1 354 350 353 350 340 334 334 331 313 301 280 266 280 224 211 172 122 133 149 165 172 169 174 179 183 185 185 187 185 180 179 180 187 199 216 268 356 59 109 107 112 125 115 126 135 162 136 359 316 140 128 157 176 214 186 164 157 146 159 163 159 155 152 158 162 160 162 166 172 170 169 173
349 351 354 356 358 359 358 354 355 0 1 2 3 3 7 4 354 346 342 341 332 322 328 331 322 316 291 279 257 177 182 158 142 138 146 162 174 176 177 181 182 184 184 188 191 185 180 181 187 198 225 284 307 142 133 117 118 146 143 155 178 172 129 302 278 150 133 169 188 227 169 162 160 159 164 166 164 159 155 161 164 163 165 168 174 175 172 176
350 350 351 353 356 357 356 352 353 358 4 9 8 6 8 4 354 339 334 334 324 317 321 316 315 318 296 279 136 143 153 160 159 152 157 160 170 181 179 179 179 179 177 178 190 188 186 188 190 218 266 286 231 156 147 134 151 201 206 169 168 161 156 168 211 291 212 158 161 207 161 157 159 165 168 168 168 164 158 162 166 166 167 171 175 178 177 176
351 348 349 351 353 355 354 352 353 0 13 14 10 7 2 359 354 342 331 325 327 320 308 303 303 298 277 146 131 128 102 124 176 172 176 171 172 187 184 177 173 171 163 153 158 174 183 188 196 221 249 262 216 170 166 174 187 201 196 169 168 167 170 151 129 272 222 164 162 172 154 154 148 161 169 170 169 167 163 164 168 168 168 174 178 181 182 180
352 347 346 349 352 355 355 352 353 4 17 15 15 12 1 356 349 340 332 321 325 318 307 300 295 285 223 167 148 102 69 103 164 174 179 172 169 185 188 179 169 161 154 144 137 149 166 171 190 212 202 200 199 191 186 183 186 184 180 178 168 173 187 171 144 231 203 167 160 160 153 148 142 159 170 172 171 171 171 169 169 171 171 175 180 186 188 187
351 347 345 347 351 356 358 352 353 3 12 18 24 20 5 356 344 336 338 315 301 303 318 272 240 294 274 233 228 47 77 123 135 152 159 163 161 163 179 175 163 155 152 153 144 149 161 158 175 207 215 194 184 201 208 63 184 180 176 173 164 171 189 165 128 190 206 167 152 164 158 152 153 163 170 174 177 175 173 171 170 173 174 178 183 188 192 194
349 346 344 346 350 358 1 352 350 1 10 20 27 23 9 358 349 327 322 310 296 294 299 280 270 279 286 267 250 69 117 138 133 146 148 155 152 144 155 157 152 153 157 160 147 154 173 175 199 210 204 170 186 206 209 14 189 172 163 164 168 168 163 137 124 175 230 179 148 162 155 157 161 165 171 176 180 182 179 175 174 175 177 182 186 190 195 198
346 346 343 344 349 358 3 355 345 358 6 14 23 25 14 1 352 321 320 315 315 315 299 284 269 264 267 249 268 86 120 122 124 145 142 142 141 134 144 148 146 158 162 139 122 128 177 196 216 216 184 167 200 202 182 119 172 167 162 160 158 156 140 110 124 159 226 355 119 144 154 163 163 164 171 175 181 189 189 182 179 180 180 185 189 193 197 199
343 344 342 343 349 357 2 357 344 349 360 8 17 18 8 358 344 328 320 308 315 319 303 271 260 258 260 208 213 141 133 104 117 146 146 146 145 133 153 158 153 154 148 138 128 136 188 215 223 212 144 165 190 194 196 181 168 171 169 163 153 143 128 92 113 157 179 89 116 139 160 164 160 163 169 179 188 195 194 190 186 183 181 187 191 195 200 201
338 341 342 344 348 355 360 357 344 336 350 358 354 359 357 348 342 337 320 285 304 317 303 264 261 263 277 184 181 173 161 121 132 157 159 161 163 154 162 167 151 142 150 160 158 167 186 224 228 179 148 173 151 173 197 196 181 181 179 186 162 157 166 128 137 163 164 164 167 151 157 160 156 162 169 186 192 192 194 194 193 188 186 190 193 197 200 201
334 336 339 345 347 353 357 352 336 322 329 333 324 334 340 337 339 339 324 278 291 317 319 293 291 264 128 129 165 175 162 136 144 163 170 172 163 155 159 153 147 146 144 149 158 178 177 41 183 147 151 182 167 163 184 195 194 179 195 215 176 171 181 146 141 149 143 184 165 140 154 187 174 175 178 187 190 187 190 192 196 199 196 195 196 199 202 202
332 331 335 342 343 349 351 342 326 314 308 308 309 318 329 334 334 331 330 294 254 315 330 22 359 70 128 136 154 154 145 138 143 160 173 178 165 152 144 146 159 152 130 131 148 188 189 128 153 142 146 177 187 191 192 204 212 185 208 221 192 177 159 130 141 146 148 211 175 161 189 197 180 187 186 181 187 189 189 192 198 201 201 198 198 203 205 205
328 324 329 335 337 342 341 330 322 315 306 303 306 310 320 330 328 324 332 323 116 355 341 23 38 117 139 165 151 144 143 141 146 157 169 176 168 153 141 139 151 140 138 132 142 199 162 153 167 154 161 170 201 220 189 196 221 219 213 199 177 170 149 142 155 162 164 190 170 179 211 183 176 194 192 183 189 193 190 194 200 198 198 199 201 205 206 206
323 318 321 326 328 332 331 328 328 323 319 313 308 308 314 321 322 323 326 135 105 358 319 329 34 117 117 147 148 150 149 139 140 157 168 170 166 160 155 149 128 139 141 137 164 201 141 150 158 148 167 174 205 220 180 188 212 309 14 177 167 166 159 154 160 171 121 97 144 171 192 24 184 191 188 185 190 198 198 199 200 196 196 201 204 206 208 210
317 310 314 319 320 325 328 327 324 328 336 326 312 309 309 311 315 316 311 117 68 335 322 343 67 104 96 145 151 121 122 143 142 158 173 171 163 158 160 176 164 139 137 181 187 163 141 173 170 161 187 207 209 209 168 182 208 355 132 167 162 167 165 159 163 161 107 117 170 174 176 192 245 163 173 184 196 204 206 206 201 194 196 201 204 205 209 214
311 302 309 315 314 321 322 312 321 333 334 323 316 312 307 306 308 291 224 80 8 337 8 25 97 106 98 140 153 72 114 149 131 142 166 172 167 154 151 171 161 128 108 227 205 156 146 200 181 174 202 223 214 162 170 185 177 98 123 118 116 130 135 150 176 157 117 207 208 182 188 206 164 170 176 188 204 208 207 208 203 196 197 201 203 203 205 211
303 297 304 308 311 315 302 301 323 332 329 326 323 317 313 305 266 218 82 48 357 309 310 323 349 341 151 144 150 40 88 108 98 135 153 160 151 115 114 142 136 123 101 3 231 190 49 156 174 195 216 229 209 136 168 168 137 126 121 108 99 96 88 90 128 127 155 234 229 182 189 210 220 191 191 195 201 200 202 207 203 197 196 200 204 203 203 209
295 293 293 295 303 301 298 312 324 328 330 330 328 321 315 261 217 70 60 8 297 307 322 317 328 19 147 158 149 62 69 66 104 143 149 146 138 101 106 139 121 128 134 136 220 252 345 179 173 214 217 210 126 96 112 149 143 137 129 127 117 105 107 95 70 301 209 219 331 174 175 193 227 198 200 206 187 185 197 203 200 197 196 200 203 204 205 210
289 287 263 280 295 294 307 319 321 329 331 327 330 326 231 172 15 53 30 317 309 329 343 338 328 8 104 119 69 47 85 73 63 133 133 151 165 131 115 169 148 162 182 198 196 211 231 209 189 218 216 197 161 113 127 160 161 160 151 148 142 134 156 167 163 238 236 221 22 167 166 184 234 185 185 207 198 190 198 203 202 198 197 198 202 205 208 213
289 272 244 277 294 299 316 321 321 328 329 326 331 329 166 82 45 40 280 302 11 341 311 15 359 18 92 110 69 21 48 64 19 67 74 56 165 147 87 40 140 171 151 193 202 201 203 189 186 206 207 193 190 162 151 169 180 177 164 162 166 159 162 184 195 246 253 229 115 160 170 197 228 150 166 211 213 199 193 200 205 201 196 196 201 205 210 214
305 244 243 281 293 311 321 319 323 327 328 331 335 155 99 51 57 280 274 268 292 313 356 358 318 47 66 80 10 309 70 55 30 58 73 87 132 153 125 77 137 341 82 190 216 210 210 199 189 191 173 177 188 184 164 156 176 183 173 176 178 172 177 187 202 222 206 138 119 146 171 227 205 139 239 240 230 206 186 189 197 197 195 196 200 205 208 213
354 209 246 282 292 315 318 316 325 329 331 335 344 102 52 51 291 277 265 274 277 295 14 6 208 94 71 39 3 336 73 48 38 51 58 78 91 89 162 58 20 132 164 212 196 193 246 262 191 177 154 173 177 171 160 157 176 186 176 192 193 186 183 138 194 212 112 115 134 161 186 283 262 281 289 264 227 200 172 169 178 185 191 192 193 198 203 209
70 127 229 291 297 312 318 321 329 334 335 336 33 69 36 355 278 237 228 308 312 341 339 46 55 63 85 40 31 24 19 45 73 58 58 78 73 41 324 289 277 184 221 240 208 181 239 248 137 118 178 197 178 161 166 177 170 154 188 198 170 140 170 148 111 105 145 179 165 191 224 262 253 254 259 226 198 185 168 161 165 172 180 181 179 185 195 205
82 81 56 321 314 316 320 328 339 342 343 348 87 69 353 256 236 212 283 320 294 345 37 124 25 25 89 67 35 7 8 61 72 55 81 80 26 30 331 295 207 209 298 265 240 219 246 255 156 165 197 210 177 160 170 185 153 153 196 176 112 63 10 264 189 145 200 220 162 200 234 232 221 236 181 172 178 178 174 168 162 163 170 172 171 175 185 199
76 78 49 1 353 346 336 339 347 347 348 12 79 76 273 301 249 235 288 313 248 88 89 101 13 329 78 97 74 353 333 130 81 79 103 49 31 49 330 324 188 251 337 242 220 142 248 263 205 179 184 139 153 165 172 197 205 190 175 156 144 205 193 176 210 187 195 219 169 189 240 239 221 212 179 178 178 178 178 174 170 167 167 169 170 171 175 187
66 93 65 31 24 16 355 348 353 354 4 55 56 64 290 291 285 302 331 315 210 80 80 68 23 137 42 84 118 16 1 106 112 99 97 31 77 113 340 339 220 306 11 188 204 98 244 259 163 137 111 118 152 181 185 185 210 3 146 168 189 269 196 175 198 211 201 201 187 175 220 231 219 192 180 183 179 178 178 178 179 176 170 168 170 171 173 177
66 100 64 33 29 28 9 3 14 19 43 79 11 343 334 297 307 348 12 41 39 35 69 222 293 92 80 80 100 50 35 56 87 92 63 51 126 142 300 278 275 318 359 189 219 193 172 248 227 108 113 162 170 194 198 179 177 185 183 185 183 142 189 171 129 281 232 185 176 194 220 210 137 81 187 185 179 179 182 182 182 179 175 171 171 175 178 178
71 84 44 30 37 39 22 24 39 38 62 109 275 254 313 322 325 352 15 41 57 57 70 91 82 75 95 95 63 51 48 55 59 64 79 67 5 143 43 323 268 291 301 192 205 217 172 222 252 236 165 183 163 159 224 197 181 189 197 190 183 169 168 183 182 162 335 194 152 200 244 122 105 96 215 186 182 184 184 184 183 181 179 177 177 180 182 183
71 74 44 30 30 20 13 32 65 56 66 31 344 280 307 331 340 353 7 23 38 54 62 66 69 58 51 53 45 44 57 57 32 35 88 67 37 217 334 330 279 237 247 203 164 344 214 157 246 267 225 198 152 46 255 257 178 179 205 191 185 183 187 201 201 161 144 147 87 152 273 46 107 121 181 181 180 180 179 182 184 179 177 186 192 192 191 193
53 78 57 356 350 1 11 36 79 42 46 350 341 318 334 348 2 6 9 15 17 24 46 46 26 39 47 32 48 61 43 47 38 34 96 82 55 261 327 341 301 201 234 261 162 138 172 158 247 247 263 65 77 113 113 32 160 183 219 179 186 196 197 208 190 159 179 179 145 198 235 133 123 129 153 159 156 164 173 178 179 172 169 184 195 199 204 210
42 91 65 9 11 32 22 31 16 17 354 347 15 41 24 19 25 23 19 20 11 1 40 51 22 31 37 21 69 63 1 53 63 29 72 118 63 313 343 3 22 178 19 358 267 194 189 314 319 181 152 134 136 143 140 136 172 191 147 144 192 142 119 112 92 148 199 183 142 223 232 123 123 147 159 158 154 160 167 167 171 167 163 172 180 189 202 211
21 107 70 39 64 82 69 99 110 26 21 6 33 31 12 31 41 35 39 37 25 12 39 54 14 11 29 53 86 66 25 40 77 27 12 120 298 303 346 8 22 20 2 330 289 276 144 22 323 221 176 166 165 156 149 152 183 344 100 140 191 149 140 135 124 175 205 160 139 232 237 111 140 165 173 175 169 162 155 155 161 157 153 161 168 174 186 197
32 93 45 50 77 75 75 80 54 36 171 88 77 34 14 66 40 31 43 44 30 29 47 41 357 345 48 55 76 63 33 31 74 91 55 350 329 307 337 359 15 16 12 12 15 164 142 72 18 352 60 95 59 56 20 315 286 299 118 137 171 181 153 134 154 189 178 147 175 225 141 147 173 179 181 183 177 160 152 153 152 146 144 152 162 169 174 184
64 79 6 22 63 62 75 65 34 23 186 95 103 32 8 345 312 20 38 45 30 27 51 57 20 14 48 41 77 69 26 26 58 62 27 336 302 290 322 347 10 16 21 30 27 76 146 60 20 21 52 51 350 327 302 305 9 355 8 131 155 178 192 187 195 174 138 155 204 182 156 174 183 182 185 184 175 159 155 157 151 146 147 150 159 168 171 177
70 102 71 57 52 60 76 18 6 20 119 87 89 101 18 32 48 37 29 37 29 19 28 65 23 16 346 329 95 75 8 36 57 26 334 8 335 312 339 345 3 14 21 31 24 38 137 59 24 22 64 58 20 19 54 92 82 41 31 42 58 8 256 223 208 154 150 192 244 163 171 189 182 178 183 178 167 156 153 156 151 145 144 145 154 163 167 171
68 101 88 55 77 187 285 326 336 63 94 77 75 66 56 64 77 74 349 7 35 13 20 64 14 7 16 30 101 80 11 50 69 33 337 13 8 357 10 354 348 3 11 33 33 33 136 66 52 151 76 42 33 42 61 79 84 66 49 37 34 25 352 27 83 125 111 6 349 159 172 186 170 172 177 169 162 155 150 151 147 142 143 144 151 159 159 163
63 75 44 17 76 33 333 333 348 110 82 53 99 81 69 60 87 109 10 16 49 7 29 86 56 19 42 58 79 84 40 30 65 44 318 314 32 23 3 324 310 349 7 30 16 4 359 170 170 185 135 35 21 29 50 66 82 70 52 30 22 28 45 64 97 128 83 56 99 145 160 167 161 169 169 164 160 156 154 157 153 147 146 145 149 154 150 150
48 40 19 28 89 350 346 14 50 107 109 63 130 143 142 114 110 114 61 31 42 49 73 108 105 48 38 50 62 65 30 259 350 348 276 243 3 11 4 30 266 317 1 20 356 351 1 140 164 204 144 51 5 2 25 40 162 65 37 12 360 357 1 60 75 224 166 133 130 140 169 180 166 169 168 163 163 163 162 164 160 154 151 149 150 149 141 139
29 17 6 30 85 349 354 75 45 130 149 108 123 153 140 144 160 141 92 47 37 57 104 148 121 55 37 48 45 13 348 355 20 26 89 134 95 76 76 76 63 16 356 358 16 10 353 47 88 312 169 71 354 345 10 359 214 74 20 352 333 326 317 302 288 251 181 151 142 156 220 144 155 169 171 167 169 169 167 167 166 160 155 152 150 144 136 132